Regional Weather Roundup
Issued by NWS

Home | Current Version | Previous Version | Text Only | Print | Product List | Glossary Off
Versions: 1 2 3 4 5 6 7 8 9 10 11 12 13 14 15 16 17 18 19 20 21 22 23 24 25 26 27 28 29 30 31 32 33 34 35 36 37 38 39 40 41 42 43 44 45 46 47 48 49 50

000
ASUS45 KCYS 300910
RWRWY

WYOMING REGIONAL WEATHER ROUNDUP
NATIONAL WEATHER SERVICE CHEYENNE WY
300 AM MDT MON MAR 30 2015

NOTE:  "FAIR" INDICATES FEW OR NO CLOUDS BELOW 12,000 FEET
WITH NO SIGNIFICANT WEATHER AND/OR OBSTRUCTIONS TO VISIBILITY.

WYZ001-301000-
YELLOWSTONE NATIONAL PARK

CITY           SKY/WX    TMP DP  RH WIND       PRES   REMARKS
LK YELLOWSTONE   N/A     24  19  81 CALM      30.27F
W YELLOWSTONE  NOT AVBL

$$
WYZ002>013-054>058-071-098>099-301000-
NORTHERN WYOMING

CITY           SKY/WX    TMP DP  RH WIND       PRES   REMARKS
JACKSON        FAIR      28  25  86 N9        30.24S WCI  20
CODY           FAIR      54  16  22 W13G18    30.09F
GREYBULL       FAIR      41  19  41 SE5       30.09R
WORLAND        FAIR      34  22  61 NE3       30.09F
SHERIDAN       FAIR      35  25  66 SW3       30.03F
BUFFALO        FAIR      44  21  40 W9        30.07S
GILLETTE       FAIR      47  25  42 SW14      30.03F
HULETT         FAIR      41  27  56 SW8       30.03S
NEWCASTLE      FAIR      36  21  55 N9        30.05F WCI  29

$$
WYZ014>020-022>026-101>103-301000-
CENTRAL WYOMING

CITY           SKY/WX    TMP DP  RH WIND       PRES   REMARKS
BIG PINEY      FAIR      23  13  65 CALM      30.25F
PINEDALE       CLOUDY    25  21  86 NW6       30.26S WCI  18
DUBOIS         FAIR      36  16  44 NW14      30.20S WCI  27
LANDER         FAIR      37  17  44 CALM      30.14S
RIVERTON       FAIR      48  17  29 W20G29    30.13F
CASPER         FAIR      34  18  52 W12       30.11S WCI  25
DOUGLAS        FAIR      32  19  58 NW6       30.10S WCI  26

$$
WYZ021-027>030-104>119-301000-
SOUTHERN WYOMING

CITY           SKY/WX    TMP DP  RH WIND       PRES   REMARKS
EVANSTON       FAIR      37  16  42 SE7       30.28S WCI  32
FORT BRIDGER   FAIR      42  14  32 W10       30.30S
ROCK SPRINGS   FAIR      38  13  35 W14       30.25S WCI  30
DIXON          FAIR      29  19  65 SE3       30.29R
RAWLINS        FAIR      43  12  28 W16G24    30.21S
SARATOGA       FAIR      37  14  38 MISG      30.24S
LARAMIE        FAIR      43  12  28 W12       30.18S
CHEYENNE       FAIR      35  23  61 SW8       30.12F WCI  29
TORRINGTON     FAIR      37  23  56 NW6       30.05F WCI  32
PINE BLUFFS    FAIR      32  21  64 W7        30.11F WCI  26

$$



USA.gov is the U.S. government's official web portal to all federal, state and local government web resources and services.